Flag for Japan Weather past 2 weeks in Sapporo, Japan

Now
48 °F

Cool.


Feels Like: 47 °F
Forecast: 34 / 46 °F
Wind: 3 mph from Northwest

Location: Sapporo

Current Time: Mar 31, 2015 at 8:30:36 PM

Latest Report: Mar 31, 2015 at 7:00 PM


Visibility: N/A

Pressure: 29.84 "Hg

Humidity: 68%

Dew point: 38 °F

Location of SapporoLocation

Historic Weather in Sapporo — Graph

°F

Sapporo temperature yesterday

Maximum temperature yesterday: 54 °F (at 12:00 PM)
Minimum temperature yesterday: 43 °F (at 11:00 PM)
Average temperature yesterday: 48 °F

Past Weeks' High & Low Weather Summary

 TemperatureHumidityPressure
High60 °F (Mar 28, 3:00 PM)89% (Mar 21, 12:00 AM)30.32 "Hg (Mar 21, 12:00 AM)
Low31 °F (Mar 24, 4:00 AM)29% (Mar 23, 10:00 AM)29.62 "Hg (Mar 24, 6:00 AM)
Average42 °F61%29.94 "Hg
* Reported Mar 16 7:00 PM — Mar 31 7:00 PM, Sapporo, Weather by CustomWeather, © 2015

Note: Actual official high and low records may vary slightly from our data, if they occured in-between our weather recording intervals... More about our weather records

Advertising

Sapporo weather history for previous 24 hours

 ConditionsComfort  
Time TempWeatherWind HumidityBarometerVisibility
7:00 PM
Tue, Mar 31
48 °FCool.3 mph68%29.84 "HgN/A
6:00 PM50 °FSprinkles. Overcast.2 mph60%29.82 "Hg5 mi
5:00 PM50 °FCool.2 mph59%29.81 "HgN/A
4:00 PM50 °FCool.5 mph59%29.80 "HgN/A
3:00 PM50 °FOvercast.9 mph58%29.83 "Hg6 mi
2:00 PM50 °FCool.13 mph57%29.83 "HgN/A
1:00 PM48 °FCool.10 mph62%29.85 "HgN/A
11:00 AM49 °FCool.12 mph54%29.88 "HgN/A
10:00 AM44 °FQuite cool.10 mph69%29.92 "HgN/A
9:00 AM43 °FOvercast.13 mph72%29.94 "Hg9 mi
8:00 AM44 °FQuite cool.9 mph66%29.96 "HgN/A
7:00 AM42 °FQuite cool.13 mph71%29.97 "HgN/A
6:00 AM44 °FOvercast.6 mph52%29.97 "Hg12 mi
5:00 AM43 °FQuite cool.10 mph61%29.98 "HgN/A
4:00 AM43 °FQuite cool.5 mph68%29.99 "HgN/A
3:00 AM46 °FOvercast.8 mph47%30.01 "Hg9 mi
2:00 AM44 °FQuite cool.6 mph53%30.02 "HgN/A
1:00 AM42 °FQuite cool.5 mph60%30.03 "HgN/A
12:00 AM42 °FQuite cool.3 mph65%30.06 "HgN/A
11:00 PM
Mon, Mar 30
43 °FQuite cool.3 mph63%30.07 "HgN/A
10:00 PM45 °FCool.6 mph61%30.07 "HgN/A
9:00 PM46 °FOvercast.2 mph77%30.08 "Hg9 mi
8:00 PM46 °FCool.3 mph72%30.08 "HgN/A
Weather by CustomWeather, © 2015

See weather overviewHow to use our weather pages